Preview of NWS' New Version of Forecast
This preview is not operational and should not be used for support decisions.

Regional Weather Roundup (RWR)

Issued by National Weather Service (NWS)

                            
000
ASUS45 KBOI 180510
RWRID 

IDAHO REGIONAL WEATHER ROUNDUP
NATIONAL WEATHER SERVICE BOISE ID
1100 PM MDT WED APR 17 2019

NOTE: "FAIR" INDICATES FEW OR NO CLOUDS BELOW 12000 FEET
WITH NO SIGNIFICANT WEATHER AND/OR OBSTRUCTIONS TO VISIBILITY

IDZ012-014-180600-
SOUTHWEST IDAHO

  
CITY           SKY/WX    TMP DP  RH WIND       PRES   REMARKS
BOISE          CLEAR     53  38  56 W5        30.29R                  
CALDWELL       CLEAR     52  39  61 CALM      30.29R                  
MOUNTAIN HOME  CLEAR     40  35  82 W8        30.29R WCI  34          
$$

IDZ016-017-180600-
SOUTHCENTRAL IDAHO

  
CITY           SKY/WX    TMP DP  RH WIND       PRES   REMARKS
BURLEY         CLEAR     47  36  65 SW13      30.27R                  
JEROME         CLEAR     48  36  63 SW17      30.27R                  
TWIN FALLS     CLEAR     47  36  65 SW14      30.30R                  
$$

IDZ019>023-180600-
SOUTHEAST IDAHO

  
CITY           SKY/WX    TMP DP  RH WIND       PRES   REMARKS
IDAHO FALLS    CLEAR     46  35  65 SW16      30.21R                  
POCATELLO      CLEAR     46  35  65 S13       30.26R                  
REXBURG        CLEAR     45  35  68 S7        30.19R                  
$$

IDZ006-010-011-018-031-032-180600-
CENTRAL IDAHO MOUNTAINS

  
CITY           SKY/WX    TMP DP  RH WIND       PRES   REMARKS
MCCALL         CLEAR     34  28  79 CALM      30.30R                  
HAILEY         CLEAR     45  27  49 NW6       30.25R                  
STANLEY          N/A     33  24  69 CALM      30.33R                  
SALMON         CLEAR     43  30  60 S6        30.28R                  
CHALLIS        CLEAR     46  25  43 SE5       30.27R                  
$$

IDZ002-004-006-007-026-180600-
NORTHERN IDAHO

  
CITY           SKY/WX    TMP DP  RH WIND       PRES   REMARKS
LEWISTON       CLEAR     51  39  63 S5        30.27R                  
LOWELL         NOT AVBL                                               
COEUR D'ALENE  CLEAR     51  37  58 SE7       30.25R                  
MULLAN PASS    CLOUDY    35  30  82 SW8       30.25S WCI  29          
$$